This is the latest recevied weather packets stored in our database for station/object N4ASP-13. If no packets are shown the sender has not sent any weather packets the latest 10 day(s).
| Time | Temp. | Humidity | Pressure | Rain* | Wind** | Luminosity | Snow |
|---|---|---|---|---|---|---|---|
| 1778349937 | 21.11° C | 66% | 1011 hPa | 0 mm | - | 1153 W/m² | - |
| 1778349879 | 21.11° C | 66% | 1011 hPa | 0 mm | - | 1150 W/m² | - |
| 1778349819 | 21.11° C | 67% | 1011 hPa | 0 mm | - | 1246 W/m² | - |
| 1778349756 | 21.11° C | 66% | 1011.1 hPa | 0 mm | - | 1246 W/m² | - |
| 1778349693 | 21.11° C | 68% | 1011 hPa | 0 mm | - | 1246 W/m² | - |
| 1778349630 | 21.11° C | 67% | 1011 hPa | 0 mm | - | 1246 W/m² | - |
| 1778349571 | 21.11° C | 67% | 1011.1 hPa | 0 mm | - | 1285 W/m² | - |
| 1778349511 | 21.11° C | 67% | 1011 hPa | 0 mm | - | 1288 W/m² | - |
| 1778349451 | 21.11° C | 68% | 1011.2 hPa | 0 mm | - | 1288 W/m² | - |
| 1778349382 | 20.56° C | 66% | 1011.2 hPa | 0 mm | - | 1288 W/m² | - |
| 1778349322 | 20.56° C | 67% | 1011.1 hPa | 0 mm | - | 1288 W/m² | - |
| 1778349263 | 20.56° C | 67% | 1011.2 hPa | 0 mm | - | 1239 W/m² | - |
| 1778349201 | 20.56° C | 68% | 1011.2 hPa | 0 mm | - | 1218 W/m² | - |
| 1778349141 | 20.56° C | 66% | 1011.2 hPa | 0 mm | - | 1211 W/m² | - |
| 1778349080 | 20.56° C | 66% | 1011.3 hPa | 0 mm | - | 336 W/m² | - |
| 1778349018 | 20.56° C | 65% | 1011.2 hPa | 0 mm | - | 336 W/m² | - |
| 1778348958 | 20.56° C | 65% | 1011.3 hPa | 0 mm | - | 336 W/m² | - |
| 1778348897 | 20.56° C | 64% | 1011.2 hPa | 0 mm | - | 316 W/m² | - |
| 1778348835 | 20.56° C | 64% | 1011.2 hPa | 0 mm | - | 976 W/m² | - |
| 1778348769 | 20.56° C | 65% | 1011.3 hPa | 0 mm | - | 976 W/m² | - |
| 1778348709 | 20.56° C | 64% | 1011.3 hPa | 0 mm | - | 976 W/m² | - |
| 1778348649 | 20.56° C | 67% | 1011.4 hPa | 0 mm | - | 334 W/m² | - |
| 1778348589 | 20.56° C | 65% | 1011.4 hPa | 0 mm | - | 334 W/m² | - |
| 1778348529 | 20.56° C | 65% | 1011.3 hPa | 0 mm | - | 334 W/m² | - |
| 1778348461 | 20.56° C | 66% | 1011.3 hPa | 0 mm | - | 278 W/m² | - |
* Rain latest hour (hover to see other rain measurements)
** Current wind speed in m/s (hover to see current wind gust speed)